Paris - Charles De Gaulle, France

4:15 AM CET on February 13, 2016 (GMT +0100)
Charles de Gaulle

Weather History for LFPG - April, 2014

Change the Weather History Date:

Saturday, April 12, 2014

  Actual Average Record
Temperature  
Mean Temperature 52 °F -  
Max Temperature 62 °F 61 °F 73 °F (2007)
Min Temperature 41 °F 45 °F 33 °F (1997)
Degree Days  
Heating Degree Days 14    
Growing Degree Days 2 (Base 50)    
Moisture  
Dew Point 41 °F    
Average Humidity 65    
Maximum Humidity 93    
Minimum Humidity 31    
Precipitation  
Precipitation 0.00 in - - ()
Sea Level Pressure  
Sea Level Pressure 30.11 in    
Wind  
Wind Speed 6 mph ()    
Max Wind Speed 9 mph    
Max Gust Speed 21 mph    
Visibility 5.3 miles    
Events Fog    
Averages and records for this station are not official NWS values.
T = Trace of Precipitation, MM = Missing Value Source: Averaged Metar Reports

Daily Weather History Graph

Daily Weather History Graph

Search for Another Location

Airport or City:

Trip Planner

Search our weather history database for the weather conditions in past years. The results will help you decide how hot, cold, wet, or windy it might be!

Date:

Astronomy

Apr. 12, 2014 Rise Set
Actual Time 7:05 AM CEST 8:37 PM CEST
Civil Twilight 6:32 AM CEST 9:10 PM CEST
Nautical Twilight 5:51 AM CEST 9:50 PM CEST
Astronomical Twilight 5:08 AM CEST 10:34 PM CEST
Moon 5:48 PM CEST (4/12) 5:38 AM CEST (4/12)
Length of Visible Light 14h 38m
Length of Day
13h 32m
Waxing Gibbous, 91% of the Moon is Illuminated
Apr 12
Waxing Gibbous
Apr 15
Full
Apr 22
Last Quarter
Apr 29
New
May 7
First Quarter

Hourly Weather History & Observations

Time (CEST) Temp. Windchill Dew Point Humidity Pressure Visibility Wind Dir Wind Speed Gust Speed Precip Events Conditions
12:00 AM 49 °F - 40 °F 63% 30.14 in 6 mi North 6.9 mph - -  
12:00 AM 50.0 °F - 41.0 °F 71% 30.12 in - North 6.9 mph - N/A   Clear
12:30 AM 48.2 °F - 39.2 °F 71% 30.12 in - NNE 4.6 mph - N/A   Clear
1:00 AM 48 °F - 40 °F 64% 30.13 in 6 mi North 5.8 mph - -  
1:00 AM 48.2 °F - 39.2 °F 71% 30.12 in - North 5.8 mph - N/A   Clear
1:30 AM 46.4 °F 42.9 °F 39.2 °F 76% 30.12 in - North 6.9 mph - N/A   Clear
2:00 AM 46 °F - 39 °F 69% 30.13 in 6 mi North 8.1 mph - -   Clear
2:00 AM 46.4 °F 42.4 °F 39.2 °F 76% 30.12 in - North 8.1 mph - N/A   Clear
2:30 AM 46.4 °F 42.9 °F 39.2 °F 76% 30.09 in 5.6 mi North 6.9 mph - N/A   Unknown
3:00 AM 45 °F - 39 °F 74% 30.13 in 6 mi North 6.9 mph - -   Clear
3:00 AM 44.6 °F 41.4 °F 39.2 °F 81% 30.09 in 5.6 mi North 5.8 mph - N/A   Unknown
3:30 AM 44.6 °F 40.7 °F 39.2 °F 81% 30.09 in 5.0 mi North 6.9 mph - N/A   Unknown
4:00 AM 44 °F - 40 °F 80% 30.11 in 4 mi North 6.9 mph - -   Clear
4:00 AM 44.6 °F 40.7 °F 39.2 °F 81% 30.09 in 3.7 mi North 6.9 mph - N/A   Unknown
4:30 AM 44.6 °F 40.7 °F 39.2 °F 81% 30.09 in 3.1 mi North 6.9 mph - N/A   Mist
5:00 AM 43 °F - 39 °F 81% 30.11 in 3 mi North 6.9 mph - -   Mist
5:00 AM 42.8 °F 38.6 °F 39.2 °F 87% 30.09 in 2.8 mi North 6.9 mph - N/A   Mist
5:30 AM 42.8 °F 38.6 °F 39.2 °F 87% 30.09 in 2.5 mi North 6.9 mph - N/A   Mist
6:00 AM 43 °F - 40 °F 84% 30.11 in 2 mi North 6.9 mph - -   Mist
6:00 AM 42.8 °F 38.0 °F 39.2 °F 87% 30.09 in 2.2 mi North 8.1 mph - N/A   Mist
6:30 AM 42.8 °F 38.0 °F 39.2 °F 87% 30.06 in 1.9 mi North 8.1 mph - N/A   Mist
7:00 AM 42 °F - 40 °F 88% 30.11 in 2 mi North 6.9 mph - -   Mist
7:00 AM 42.8 °F 38.6 °F 39.2 °F 87% 30.09 in 1.6 mi North 6.9 mph - N/A   Mist
7:30 AM 42.8 °F 38.0 °F 39.2 °F 87% 30.09 in 1.6 mi North 8.1 mph 19.6 mph N/A   Mist
8:00 AM 43 °F - 40 °F 87% 30.13 in 2 mi North 6.9 mph - -   Mist
8:00 AM 42.8 °F 38.6 °F 41.0 °F 93% 30.09 in 1.9 mi Variable 6.9 mph 20.7 mph N/A   Mist
8:30 AM 42.8 °F 38.6 °F 41.0 °F 93% 30.12 in 1.9 mi North 6.9 mph - N/A   Mostly Cloudy
9:00 AM 45 °F - 43 °F 88% 30.14 in 2 mi North 6.9 mph - -   Mist
9:00 AM 44.6 °F 40.7 °F 42.8 °F 93% 30.12 in 1.9 mi Variable 6.9 mph - N/A   Mostly Cloudy
9:30 AM 44.6 °F 40.7 °F 42.8 °F 93% 30.12 in 1.2 mi North 6.9 mph - N/A Fog Patches of Fog
10:00 AM 46 °F - 44 °F 88% 30.15 in 0 mi North 4.6 mph - - Fog Patches of Fog
10:00 AM 46.4 °F 44.3 °F 42.8 °F 87% 30.12 in 1.2 mi North 4.6 mph - N/A Fog Patches of Fog
10:30 AM 48.2 °F - 44.6 °F 87% 30.12 in 2.5 mi NNW 3.5 mph - N/A   Scattered Clouds
11:00 AM 51 °F - 47 °F 82% 30.15 in 3 mi NNE 2.3 mph - -   Mist
11:00 AM 50.0 °F - 46.4 °F 87% 30.12 in 4.3 mi Variable 2.3 mph - N/A   Mostly Cloudy
11:30 AM 53.6 °F - 46.4 °F 77% 30.12 in 3.7 mi Variable 3.5 mph - N/A   Unknown
12:00 PM 55 °F - 45 °F 61% 30.14 in 5 mi North 6.9 mph - -   Scattered Clouds
12:00 PM 55.4 °F - 44.6 °F 67% 30.12 in 5.0 mi North 6.9 mph - N/A   Mostly Cloudy
12:30 PM 57.2 °F - 46.4 °F 67% 30.12 in 5.6 mi NNE 8.1 mph - N/A   Mostly Cloudy
1:00 PM 58 °F - 42 °F 43% 30.14 in 6 mi NNE 5.8 mph - -   Mostly Cloudy
1:00 PM 57.2 °F - 41.0 °F 55% 30.12 in 6.2 mi NNE 5.8 mph - N/A   Mostly Cloudy
1:30 PM 59.0 °F - 41.0 °F 51% 30.12 in 6.2 mi North 8.1 mph - N/A   Mostly Cloudy
2:00 PM 58 °F - 40 °F 39% 30.13 in 8 mi NNE 4.6 mph - -   Partly Cloudy
2:00 PM 59.0 °F - 39.2 °F 48% 30.12 in 6.2 mi Variable 4.6 mph - N/A   Mostly Cloudy
2:30 PM 59.0 °F - 39.2 °F 48% 30.09 in 6.2 mi WNW 3.5 mph - N/A   Mostly Cloudy
3:00 PM 62 °F - 41 °F 34% 30.10 in 11 mi North 1.2 mph - -   Scattered Clouds
3:00 PM 62.6 °F - 41.0 °F 45% 30.09 in 6.2 mi Variable 1.2 mph - N/A   Mostly Cloudy
3:30 PM 60.8 °F - 39.2 °F 45% 30.09 in 6.2 mi North 6.9 mph - N/A   Mostly Cloudy
4:00 PM 62 °F - 40 °F 32% 30.09 in 12 mi North 3.5 mph - -   Scattered Clouds
4:00 PM 60.8 °F - 39.2 °F 45% 30.09 in 6.2 mi Variable 3.5 mph - N/A   Mostly Cloudy
4:30 PM 60.8 °F - 37.4 °F 42% 30.06 in 6.2 mi NW 5.8 mph - N/A   Mostly Cloudy
5:00 PM 61 °F - 38 °F 31% 30.08 in 12 mi North 3.5 mph - -   Mostly Cloudy
5:00 PM 60.8 °F - 37.4 °F 42% 30.06 in - NNE 3.5 mph - N/A   Clear
5:30 PM 60.8 °F - 39.2 °F 45% 30.06 in - NNW 6.9 mph - N/A   Clear
6:00 PM 61 °F - 40 °F 35% 30.09 in 12 mi NNW 8.1 mph - -   Mostly Cloudy
6:00 PM 60.8 °F - 39.2 °F 45% 30.06 in - NNW 9.2 mph - N/A   Clear
6:30 PM 60.8 °F - 39.2 °F 45% 30.06 in - NNW 6.9 mph - N/A   Clear
7:00 PM 60 °F - 40 °F 37% 30.09 in 12 mi NNW 9.2 mph - -   Scattered Clouds
7:00 PM 60.8 °F - 41.0 °F 48% 30.09 in - NNW 9.2 mph - N/A   Clear
7:30 PM 60.8 °F - 39.2 °F 45% 30.09 in - NNW 9.2 mph - N/A   Clear
8:00 PM 59 °F - 39 °F 36% 30.10 in 12 mi NNW 8.1 mph - -   Scattered Clouds
8:00 PM 59.0 °F - 39.2 °F 48% 30.09 in - NNW 8.1 mph - N/A   Clear
8:30 PM 59.0 °F - 39.2 °F 48% 30.09 in - NNW 4.6 mph - N/A   Clear
9:00 PM 58 °F - 39 °F 37% 30.11 in 12 mi NW 3.5 mph - -   Scattered Clouds
9:00 PM 59.0 °F - 39.2 °F 48% 30.09 in - NW 3.5 mph - N/A   Clear
9:30 PM 57.2 °F - 41.0 °F 55% 30.09 in - NW 4.6 mph - N/A   Clear
10:00 PM 56 °F - 41 °F 46% 30.13 in 12 mi North 9.2 mph - -   Mostly Cloudy
10:00 PM 57.2 °F - 41.0 °F 55% 30.12 in - North 9.2 mph - N/A   Clear
10:30 PM 55.4 °F - 41.0 °F 58% 30.12 in - North 5.8 mph - N/A   Clear
11:00 PM 54 °F - 41 °F 51% 30.14 in 12 mi North 5.8 mph - -   Mostly Cloudy
11:00 PM 53.6 °F - 41.0 °F 62% 30.12 in - North 5.8 mph - N/A   Clear
11:30 PM 53.6 °F - 41.0 °F 62% 30.12 in - NNW 4.6 mph - N/A   Clear